Wind_Speed
15 15 16 16 18 19 19 20 21 20 20 21 21 19 19 20 18 17 17 17 17 17 17 17 16 16 15 14 13 11 11 12 12 13 13 13 13 14 14 13 13 13
15 16 15 16 18 18 18 19 20 20 19 19 20 20 20 20 19 18 18 18 18 18 17 17 17 16 15 14 12 11 11 12 12 13 12 12 12 13 13 12 12 13
16 16 16 18 19 19 18 19 20 19 19 19 20 20 20 19 19 19 19 19 18 17 16 15 16 15 14 13 11 9 10 12 13 12 12 12 12 12 11 10 11 12
16 18 19 20 21 22 20 20 21 20 20 21 21 20 19 18 18 19 19 19 19 18 16 15 14 14 13 12 10 8 9 12 13 13 12 12 11 11 11 11 11 11
17 19 21 20 21 22 22 22 23 23 23 22 21 20 19 19 19 19 19 18 18 19 18 16 15 14 13 12 10 8 10 13 13 13 12 11 11 10 11 12 12 11
19 20 20 20 20 21 22 23 23 24 25 24 22 21 20 20 19 18 17 17 17 18 18 18 17 15 14 13 11 11 12 13 14 13 12 10 10 10 10 11 12 11
21 22 20 20 21 22 24 25 23 23 25 23 23 21 19 18 17 16 16 16 17 17 18 19 18 16 15 13 13 13 13 13 13 12 11 10 10 9 10 11 11 11
23 23 21 21 23 24 26 26 24 23 24 22 21 20 18 17 16 16 15 15 17 19 18 18 17 16 14 13 13 14 14 13 12 11 10 10 10 9 9 11 11 11
23 22 21 23 26 27 27 25 23 23 22 21 20 20 19 17 16 15 14 15 20 22 20 18 17 16 14 13 13 15 15 14 13 11 11 10 10 8 8 11 12 11
24 23 23 26 28 28 26 24 23 23 22 21 20 20 19 16 15 14 14 18 22 22 21 20 18 17 15 14 14 15 14 13 12 12 11 10 8 5 6 10 12 11
25 25 27 28 29 28 27 26 24 23 22 21 21 20 18 16 15 15 16 19 21 22 22 21 18 17 16 15 15 13 12 11 12 12 12 10 7 4 6 9 11 11
28 29 29 29 29 29 27 27 26 23 22 21 21 20 18 17 17 17 16 16 18 22 23 20 18 17 16 15 14 13 13 12 12 12 12 10 7 6 7 9 10 11
29 30 29 29 30 29 27 25 24 21 21 21 21 21 19 19 19 17 15 14 15 21 22 19 19 17 13 13 14 14 14 11 11 13 14 12 10 9 10 11 11 12
27 28 29 29 28 26 24 22 20 19 20 23 23 21 19 19 19 17 15 15 16 19 19 19 19 15 12 15 17 16 14 11 11 15 16 15 13 12 12 12 13 15
25 24 26 26 24 21 21 20 18 17 20 25 25 21 19 20 19 18 17 17 17 17 17 18 17 13 14 18 19 17 15 12 12 15 16 15 15 14 13 12 13 16
24 23 22 22 21 21 21 21 19 18 22 25 23 20 20 21 20 19 18 18 18 17 17 17 16 15 18 20 18 16 15 15 15 15 15 14 14 15 14 12 12 13
23 24 22 21 22 21 21 22 20 20 24 24 21 21 22 22 21 20 19 19 19 18 17 17 17 18 19 18 17 17 17 16 16 15 14 14 13 14 14 12 11 11
21 23 22 22 23 21 21 22 21 22 25 24 22 23 24 23 22 20 19 20 21 19 18 18 18 18 18 17 17 18 17 17 16 14 13 13 12 12 12 10 9 9
21 21 22 22 22 22 24 24 22 23 25 24 23 24 24 23 21 19 19 20 21 20 19 19 19 19 19 18 18 17 17 17 16 14 13 13 12 12 11 10 7 6
19 17 19 23 23 23 25 25 23 24 26 25 25 26 26 23 19 18 20 21 21 21 20 20 20 20 20 19 18 18 18 17 16 15 13 12 11 9 8 7 5 4
16 15 17 22 24 25 26 25 26 28 28 27 26 26 25 23 20 20 21 21 21 21 20 21 21 21 21 20 19 19 18 18 17 14 10 7 6 4 3 3 4 5
13 15 17 20 23 24 24 26 28 28 26 27 27 25 25 23 21 21 21 20 20 20 20 21 21 20 19 19 18 18 18 17 14 10 7 5 4 3 3 4 5 7
9 13 17 20 21 22 24 25 27 26 23 25 27 26 25 23 22 21 19 18 17 15 14 16 17 17 17 17 17 16 15 14 11 8 8 9 8 8 9 10 11 11
8 10 14 18 20 23 25 26 26 27 25 25 26 27 24 21 18 17 15 11 8 7 6 8 12 15 15 16 16 14 13 12 12 12 12 11 9 10 12 14 14 13
9 9 11 13 14 17 22 23 23 24 23 21 20 20 18 15 13 13 11 9 8 10 11 11 12 14 13 13 14 13 12 13 14 15 14 12 11 11 13 13 12 11
10 10 10 10 10 11 14 17 18 18 17 15 14 13 14 15 15 14 15 14 14 16 16 15 13 12 12 12 12 12 12 13 13 14 13 12 12 12 12 11 10 9
Wind_Direction
214 213 215 213 204 203 208 206 202 195 190 189 190 188 185 183 180 176 174 175 176 178 177 175 171 167 165 166 172 182 190 195 195 193 197 202 204 209 213 215 211 209
207 206 210 211 205 204 206 206 202 196 193 193 191 186 182 180 178 176 176 178 179 179 177 174 171 170 171 171 170 178 187 191 193 189 190 196 199 204 211 213 212 212
203 199 204 209 204 198 201 204 201 198 196 193 189 186 183 180 177 174 174 177 178 178 177 177 178 178 179 179 174 173 181 189 192 189 188 192 196 202 205 204 207 208
201 198 203 207 199 191 195 199 198 198 195 189 186 185 184 181 177 175 174 178 179 179 181 184 185 183 181 183 182 174 175 184 187 185 187 191 194 200 203 199 197 197
200 199 201 203 196 191 193 195 193 190 186 185 184 183 184 184 181 181 182 185 186 186 187 190 192 190 186 188 191 185 177 178 180 180 182 186 189 194 199 197 192 189
202 200 198 196 194 192 191 191 189 184 181 180 179 180 185 187 187 190 192 194 196 193 192 196 199 196 191 192 191 183 176 173 173 172 171 175 182 186 191 193 191 192
204 199 195 190 189 189 188 187 187 185 181 177 177 180 185 189 193 198 200 202 201 194 189 190 190 186 183 185 180 172 167 165 164 163 162 166 173 179 189 194 193 192
203 199 192 186 186 187 187 188 188 186 182 178 180 183 187 194 200 203 202 196 185 177 172 171 171 170 170 174 172 164 157 152 151 155 157 159 161 166 183 193 193 189
201 198 193 189 188 187 189 190 185 182 184 186 186 187 193 200 203 201 194 178 169 165 163 163 165 166 166 167 164 159 157 153 151 154 159 162 162 164 179 189 192 189
199 198 193 190 188 188 189 186 179 182 189 191 191 194 197 198 195 191 179 171 170 167 163 166 168 167 168 164 159 160 164 165 163 163 166 169 167 166 181 188 189 186
198 196 192 189 189 187 185 182 183 189 194 196 199 198 193 184 177 172 167 170 174 170 166 170 170 167 165 162 163 164 163 165 168 167 168 171 166 157 173 184 184 180
196 195 193 191 189 185 182 183 187 192 195 199 199 190 178 170 161 154 152 161 170 169 169 170 167 165 165 166 168 164 158 163 171 172 173 170 154 142 155 170 174 171
198 195 191 189 188 184 182 185 189 193 196 195 188 177 169 162 155 147 143 147 159 168 170 169 164 165 170 172 170 164 161 165 165 168 172 162 143 137 145 155 162 163
203 197 189 185 187 185 181 183 186 189 187 181 176 171 166 160 155 151 148 147 156 163 165 166 166 169 171 168 165 162 162 162 153 155 160 153 141 137 138 146 158 161
208 201 190 185 187 183 177 178 181 181 177 173 171 170 166 162 161 160 158 156 158 159 159 164 169 171 166 162 162 162 161 162 159 156 156 153 149 147 143 146 159 166
209 202 194 190 188 182 176 178 181 178 172 168 169 170 168 165 166 169 169 166 163 162 163 166 167 164 162 161 164 166 164 164 164 163 163 160 155 155 156 156 163 171
206 199 195 189 182 176 172 174 175 173 169 167 168 170 170 169 171 175 178 174 170 167 167 167 164 163 164 165 169 172 171 169 166 162 163 166 163 162 164 167 172 177
204 197 194 185 177 170 167 170 171 169 169 170 171 171 171 173 176 180 181 179 176 172 170 170 169 168 170 171 173 176 177 176 175 170 166 169 173 176 176 174 179 188
202 197 193 188 180 171 167 172 174 173 174 175 175 176 176 177 181 183 183 181 179 176 173 173 174 174 176 177 180 181 179 176 177 178 177 176 176 181 186 185 191 213
192 195 192 187 183 178 175 175 175 177 179 178 177 179 179 178 176 176 177 176 179 180 177 177 176 174 173 176 180 182 180 176 175 173 176 181 181 182 188 189 198 224
174 185 188 183 181 182 181 178 176 178 176 171 170 174 174 172 168 166 166 167 170 174 174 175 175 172 173 175 178 181 182 182 182 179 178 186 188 185 193 202 224 249
157 166 173 177 181 183 182 177 173 172 168 164 166 169 167 164 161 159 159 159 162 167 171 173 172 173 176 178 180 185 189 191 192 190 192 211 235 257 269 277 281 280
133 142 149 158 166 173 178 178 169 162 159 159 159 160 160 159 159 159 160 161 161 162 167 171 174 178 184 187 191 199 203 204 210 215 221 238 258 273 286 296 295 286
114 128 138 145 149 151 160 169 165 159 160 158 150 148 150 153 156 160 164 165 163 169 184 191 189 190 195 197 201 205 204 204 213 225 235 249 262 270 278 282 279 273
104 121 136 147 151 148 150 159 164 162 160 155 143 141 150 163 175 184 191 199 206 208 208 204 192 186 189 196 201 204 204 207 216 228 239 249 259 264 266 262 258 258
99 108 120 135 154 163 160 166 177 178 173 168 167 174 184 190 192 193 194 196 199 199 196 195 196 194 192 195 199 203 208 215 223 231 239 247 254 259 258 253 251 251
Height
1508 1508 1509 1510 1512 1514 1517 1519 1521 1522 1523 1525 1526 1527 1529 1530 1532 1533 1534 1536 1538 1539 1540 1541 1542 1543 1544 1545 1546 1547 1549 1550 1550 1551 1552 1553 1554 1555 1556 1557 1557 1558
1506 1507 1509 1511 1512 1514 1517 1520 1522 1524 1525 1526 1527 1528 1529 1530 1531 1533 1534 1536 1537 1539 1540 1541 1542 1543 1544 1545 1546 1547 1548 1549 1550 1551 1552 1553 1553 1554 1555 1556 1557 1558
1506 1507 1508 1510 1512 1514 1517 1520 1523 1525 1526 1527 1528 1529 1530 1531 1532 1533 1534 1536 1537 1538 1539 1540 1542 1543 1544 1545 1546 1547 1547 1548 1549 1550 1551 1552 1553 1554 1555 1556 1556 1557
1506 1507 1508 1509 1511 1512 1515 1519 1522 1524 1526 1527 1528 1529 1531 1531 1533 1534 1535 1536 1537 1538 1539 1540 1541 1542 1543 1544 1545 1546 1547 1548 1549 1550 1551 1552 1553 1554 1554 1555 1556 1556
1506 1507 1507 1509 1511 1512 1514 1517 1519 1522 1524 1526 1527 1529 1530 1532 1533 1534 1535 1537 1537 1538 1539 1540 1541 1542 1543 1544 1545 1546 1547 1548 1549 1550 1551 1552 1552 1553 1554 1555 1555 1556
1505 1505 1507 1509 1511 1513 1515 1517 1519 1521 1522 1524 1525 1527 1529 1531 1532 1534 1535 1536 1537 1538 1539 1540 1541 1542 1543 1544 1545 1546 1547 1548 1549 1550 1551 1552 1552 1553 1554 1554 1555 1556
1504 1505 1506 1508 1510 1512 1515 1516 1518 1521 1522 1523 1524 1526 1528 1530 1531 1532 1533 1535 1536 1537 1538 1539 1540 1541 1542 1544 1545 1546 1547 1548 1549 1550 1551 1552 1552 1553 1554 1554 1555 1556
1503 1505 1506 1507 1509 1511 1514 1515 1517 1519 1521 1522 1524 1525 1527 1529 1530 1532 1533 1534 1535 1536 1537 1538 1539 1541 1542 1544 1545 1546 1547 1548 1549 1550 1551 1552 1553 1553 1554 1555 1555 1556
1502 1504 1505 1506 1507 1509 1512 1513 1515 1517 1520 1522 1523 1525 1527 1528 1530 1531 1532 1533 1534 1535 1537 1538 1539 1541 1542 1544 1545 1546 1547 1548 1549 1550 1551 1552 1553 1554 1554 1555 1556 1556
1501 1502 1504 1505 1506 1508 1510 1512 1514 1517 1520 1521 1523 1525 1526 1528 1529 1530 1531 1532 1533 1535 1536 1538 1539 1541 1543 1544 1545 1546 1548 1549 1549 1550 1551 1552 1553 1554 1554 1555 1556 1556
1499 1501 1502 1503 1505 1506 1508 1511 1514 1517 1519 1521 1523 1524 1526 1528 1528 1529 1530 1532 1533 1535 1536 1538 1539 1541 1543 1544 1546 1547 1548 1549 1550 1550 1551 1552 1553 1554 1554 1555 1556 1557
1497 1499 1501 1502 1504 1505 1507 1510 1513 1516 1519 1520 1522 1524 1526 1527 1528 1529 1531 1532 1534 1535 1537 1538 1539 1541 1543 1544 1546 1548 1549 1549 1550 1551 1552 1553 1553 1554 1554 1555 1556 1557
1496 1498 1500 1503 1504 1505 1507 1510 1513 1516 1518 1520 1522 1524 1526 1527 1528 1530 1531 1533 1534 1535 1537 1538 1539 1541 1543 1544 1546 1548 1549 1550 1550 1551 1552 1553 1553 1554 1554 1555 1556 1557
1498 1499 1501 1504 1507 1507 1509 1511 1514 1516 1518 1520 1522 1524 1526 1527 1529 1530 1531 1532 1534 1535 1537 1538 1539 1541 1542 1544 1546 1548 1549 1550 1550 1551 1552 1553 1553 1554 1554 1555 1556 1556
1500 1501 1503 1506 1509 1511 1512 1514 1515 1517 1518 1520 1522 1524 1526 1528 1529 1530 1531 1532 1534 1535 1537 1539 1540 1541 1543 1544 1546 1548 1549 1550 1550 1551 1552 1552 1553 1554 1555 1555 1556 1557
1500 1502 1504 1506 1508 1511 1513 1515 1517 1518 1519 1521 1523 1525 1526 1527 1528 1530 1531 1533 1534 1536 1537 1539 1540 1542 1543 1545 1546 1548 1549 1550 1550 1551 1552 1553 1553 1554 1555 1556 1557 1557
1500 1502 1504 1506 1508 1511 1513 1515 1517 1518 1519 1521 1523 1524 1526 1527 1528 1530 1531 1533 1535 1536 1538 1539 1541 1542 1544 1545 1546 1547 1549 1550 1550 1552 1553 1553 1554 1555 1555 1556 1557 1558
1501 1503 1505 1507 1508 1511 1513 1515 1517 1518 1519 1521 1523 1524 1525 1526 1528 1530 1532 1534 1535 1536 1538 1540 1541 1543 1544 1545 1546 1547 1549 1550 1551 1552 1553 1554 1555 1555 1556 1556 1557 1558
1501 1503 1505 1507 1508 1510 1512 1514 1516 1518 1519 1521 1522 1524 1525 1527 1528 1530 1532 1534 1535 1537 1538 1540 1542 1543 1544 1545 1546 1547 1548 1549 1550 1552 1553 1554 1554 1555 1555 1556 1557 1557
1501 1503 1504 1507 1509 1510 1512 1514 1516 1518 1518 1520 1521 1523 1525 1527 1529 1530 1532 1534 1535 1536 1538 1540 1542 1543 1545 1545 1546 1547 1548 1549 1550 1551 1552 1553 1554 1554 1555 1555 1556 1557
1502 1503 1505 1507 1509 1510 1511 1513 1515 1517 1517 1519 1521 1523 1525 1527 1529 1531 1532 1534 1535 1537 1538 1540 1541 1543 1544 1545 1546 1547 1547 1548 1549 1550 1551 1552 1554 1555 1555 1555 1555 1556
1505 1504 1506 1508 1509 1510 1511 1513 1514 1516 1518 1519 1520 1522 1525 1527 1529 1531 1532 1534 1535 1537 1538 1539 1540 1542 1543 1544 1546 1547 1547 1548 1549 1550 1552 1553 1554 1555 1554 1554 1554 1555
1507 1507 1507 1508 1509 1510 1512 1514 1516 1517 1519 1520 1521 1522 1525 1527 1529 1531 1532 1533 1535 1536 1537 1538 1539 1541 1542 1544 1545 1546 1546 1548 1549 1550 1551 1552 1553 1553 1553 1553 1554 1554
1509 1509 1510 1510 1511 1511 1512 1514 1517 1518 1520 1522 1522 1522 1525 1528 1529 1531 1532 1533 1534 1535 1537 1539 1540 1541 1542 1543 1544 1545 1546 1547 1548 1549 1550 1551 1551 1551 1552 1552 1552 1553
1511 1511 1511 1512 1514 1514 1515 1516 1519 1520 1522 1523 1523 1524 1526 1528 1530 1531 1532 1534 1535 1537 1539 1540 1541 1541 1541 1542 1543 1544 1545 1546 1547 1548 1549 1549 1549 1550 1550 1550 1551 1551
1512 1513 1513 1513 1514 1515 1516 1518 1520 1522 1524 1524 1525 1525 1527 1529 1530 1532 1533 1535 1537 1539 1540 1540 1540 1540 1541 1541 1542 1543 1544 1545 1546 1547 1547 1547 1547 1547 1548 1548 1548 1549